User: anonymous   Login
Location: Unspecified
(0.0000°N, 0.0000°E)
Time: 19:02:48
(UTC+00:00)
Language:

SES 6 - Orbit

View from above orbital plane
View from above orbital plane
View from above satellite
View from above satellite

Ground track
Ground track

The orbit data is extracted from the following two-line orbital elements,

1 39172U 13026A   14323.09194866 -.00000254  00000-0  00000+0 0  3793
2 39172 000.0224 351.3910 0002221 272.5895 146.6824 01.00270815  5357
Epoch (UTC): 19 November 2014 02:12:24
Eccentricity: 0.0002221
inclination: 0.0224°
perigee height: 35777 km
apogee height: 35796 km
right ascension of ascending node: 351.3910°
argument of perigee: 272.5895°
revolutions per day: 1.00270815
mean anomaly at epoch: 146.6824°
orbit number at epoch: 535

The dashed part of the orbit path shows where the satellite is in the earth's shadow,  

DLR